TimeEDT,TemperatureF,Dew PointF,Humidity,Sea Level PressureIn,VisibilityMPH,Wind Direction,Wind SpeedMPH,Gust SpeedMPH,PrecipitationIn,Events,Conditions,WindDirDegrees,DateUTC
12:14 AM,73.4,69.8,88,30.11,10.0,SSE,4.6,-,N/A,,Clear,150,2013-07-06 04:14:00
12:34 AM,73.4,69.8,88,30.10,10.0,SSE,4.6,-,N/A,,Clear,150,2013-07-06 04:34:00
12:54 AM,73.4,69.8,88,30.10,10.0,SE,5.8,-,N/A,,Clear,140,2013-07-06 04:54:00
1:14 AM,73.4,69.8,88,30.10,10.0,South,3.5,-,N/A,,Clear,170,2013-07-06 05:14:00
1:34 AM,73.4,69.8,88,30.10,7.0,Calm,Calm,-,N/A,,Clear,0,2013-07-06 05:34:00
1:54 AM,73.4,69.8,88,30.10,7.0,Calm,Calm,-,N/A,,Clear,0,2013-07-06 05:54:00
2:14 AM,73.4,69.8,88,30.10,10.0,SSW,3.5,-,N/A,,Clear,200,2013-07-06 06:14:00
2:34 AM,73.4,69.8,88,30.10,10.0,SSW,3.5,-,N/A,,Clear,200,2013-07-06 06:34:00
2:54 AM,73.4,69.8,88,30.10,10.0,SSW,4.6,-,N/A,,Clear,210,2013-07-06 06:54:00
3:14 AM,73.4,69.8,88,30.10,10.0,SSW,6.9,-,N/A,,Clear,210,2013-07-06 07:14:00
3:34 AM,73.4,68.0,83,30.10,10.0,SSW,5.8,-,N/A,,Clear,210,2013-07-06 07:34:00
3:54 AM,73.4,68.0,83,30.10,10.0,SSW,3.5,-,N/A,,Clear,210,2013-07-06 07:54:00
4:14 AM,71.6,68.0,88,30.10,10.0,Calm,Calm,-,N/A,,Clear,0,2013-07-06 08:14:00
4:34 AM,71.6,68.0,88,30.10,10.0,Calm,Calm,-,N/A,,Clear,0,2013-07-06 08:34:00
4:54 AM,71.6,66.2,83,30.10,10.0,Calm,Calm,-,N/A,,Clear,0,2013-07-06 08:54:00
5:14 AM,71.6,66.2,83,30.10,10.0,Calm,Calm,-,N/A,,Clear,0,2013-07-06 09:14:00
5:34 AM,71.6,66.2,83,30.10,7.0,SSW,3.5,-,N/A,,Clear,200,2013-07-06 09:34:00
5:54 AM,71.6,66.2,83,30.10,7.0,Calm,Calm,-,N/A,,Clear,0,2013-07-06 09:54:00
6:14 AM,71.6,66.2,83,30.10,7.0,Calm,Calm,-,N/A,,Clear,0,2013-07-06 10:14:00
6:34 AM,71.6,66.2,83,30.10,7.0,Calm,Calm,-,N/A,,Clear,0,2013-07-06 10:34:00
6:55 AM,71.6,66.2,83,30.11,7.0,Calm,Calm,-,N/A,,Clear,0,2013-07-06 10:55:00
7:14 AM,71.6,66.2,83,30.11,7.0,Calm,Calm,-,N/A,,Clear,0,2013-07-06 11:14:00
7:34 AM,71.6,68.0,88,30.11,5.0,Calm,Calm,-,N/A,,Clear,0,2013-07-06 11:34:00
7:55 AM,71.6,68.0,88,30.12,5.0,Calm,Calm,-,N/A,,Clear,0,2013-07-06 11:55:00
8:14 AM,73.4,68.0,83,30.12,7.0,South,3.5,-,N/A,,Clear,190,2013-07-06 12:14:00
8:34 AM,73.4,69.8,88,30.12,7.0,Calm,Calm,-,N/A,,Clear,0,2013-07-06 12:34:00
8:55 AM,73.4,69.8,88,30.13,7.0,South,4.6,-,N/A,,Clear,190,2013-07-06 12:55:00
9:14 AM,73.4,69.8,88,30.12,7.0,South,3.5,-,N/A,,Clear,190,2013-07-06 13:14:00
9:34 AM,75.2,69.8,83,30.13,7.0,South,5.8,-,N/A,,Clear,170,2013-07-06 13:34:00
9:55 AM,73.4,69.8,88,30.13,5.0,South,6.9,-,N/A,,Clear,170,2013-07-06 13:55:00
10:14 AM,73.4,69.8,88,30.11,5.0,South,5.8,-,N/A,,Clear,180,2013-07-06 14:14:00
10:34 AM,75.2,69.8,83,30.11,7.0,South,4.6,-,N/A,,Clear,180,2013-07-06 14:34:00
10:54 AM,75.2,71.6,89,30.11,7.0,South,5.8,-,N/A,,Clear,170,2013-07-06 14:54:00
11:14 AM,75.2,69.8,83,30.11,7.0,South,6.9,-,N/A,,Clear,180,2013-07-06 15:14:00
11:34 AM,75.2,71.6,89,30.11,7.0,South,6.9,-,N/A,,Clear,180,2013-07-06 15:34:00
11:54 AM,75.2,71.6,89,30.12,7.0,South,6.9,-,N/A,,Clear,180,2013-07-06 15:54:00
12:14 PM,75.2,71.6,89,30.11,5.0,South,6.9,-,N/A,,Scattered Clouds,170,2013-07-06 16:14:00
12:34 PM,75.2,71.6,89,30.11,7.0,South,8.1,-,N/A,,Scattered Clouds,180,2013-07-06 16:34:00
12:54 PM,75.2,71.6,89,30.11,7.0,SSE,5.8,-,N/A,,Scattered Clouds,160,2013-07-06 16:54:00
1:14 PM,75.2,71.6,89,30.10,7.0,SSE,8.1,-,N/A,,Scattered Clouds,160,2013-07-06 17:14:00
1:34 PM,75.2,71.6,89,30.09,10.0,SSE,8.1,-,N/A,,Scattered Clouds,160,2013-07-06 17:34:00
1:54 PM,77.0,71.6,83,30.09,10.0,SE,6.9,-,N/A,,Clear,130,2013-07-06 17:54:00
2:14 PM,77.0,71.6,83,30.08,10.0,SSE,5.8,-,N/A,,Scattered Clouds,160,2013-07-06 18:14:00
2:35 PM,77.0,69.8,78,30.07,10.0,SSE,5.8,-,N/A,,Scattered Clouds,150,2013-07-06 18:35:00
2:54 PM,78.8,69.8,74,30.06,10.0,SE,5.8,-,N/A,,Clear,140,2013-07-06 18:54:00
3:14 PM,78.8,71.6,78,30.06,10.0,SSE,6.9,-,N/A,,Clear,160,2013-07-06 19:14:00
3:35 PM,77.0,69.8,78,30.06,10.0,SSE,6.9,-,N/A,,Mostly Cloudy,150,2013-07-06 19:35:00
3:54 PM,77.0,71.6,83,30.06,10.0,SSE,8.1,-,N/A,,Overcast,160,2013-07-06 19:54:00
4:14 PM,75.2,71.6,89,30.06,7.0,SE,9.2,-,N/A,Rain,Rain,140,2013-07-06 20:14:00
4:34 PM,75.2,71.6,89,30.05,10.0,SSE,5.8,-,N/A,Rain,Light Rain,150,2013-07-06 20:34:00
4:54 PM,73.4,69.8,88,30.04,10.0,SSE,5.8,-,N/A,,Mostly Cloudy,150,2013-07-06 20:54:00
5:14 PM,75.2,69.8,83,30.04,10.0,Calm,Calm,-,N/A,,Mostly Cloudy,0,2013-07-06 21:14:00
5:34 PM,75.2,69.8,83,30.03,10.0,Calm,Calm,-,N/A,,Mostly Cloudy,0,2013-07-06 21:34:00
5:54 PM,73.4,69.8,88,30.04,3.0,Calm,Calm,-,0.05,Rain,Heavy Rain,0,2013-07-06 21:54:00
6:14 PM,73.4,69.8,88,30.03,7.0,Calm,Calm,-,0.08,Rain,Rain,0,2013-07-06 22:14:00
6:34 PM,71.6,69.8,94,30.02,5.0,Calm,Calm,-,0.11,Rain,Heavy Rain,0,2013-07-06 22:34:00
6:54 PM,71.6,69.8,94,30.01,4.0,North,3.5,-,0.17,Rain,Heavy Rain,10,2013-07-06 22:54:00
7:14 PM,71.6,69.8,94,30.01,5.0,Calm,Calm,-,0.08,Rain,Heavy Rain,0,2013-07-06 23:14:00
7:34 PM,71.6,69.8,94,30.01,5.0,West,3.5,-,0.18,Rain,Heavy Rain,260,2013-07-06 23:34:00
7:54 PM,71.6,69.8,94,30.01,1.8,West,4.6,-,0.60,Rain,Heavy Rain,270,2013-07-06 23:54:00
8:14 PM,71.6,69.8,94,30.01,0.8,North,4.6,-,0.27,Rain,Heavy Rain,360,2013-07-07 00:14:00
8:34 PM,71.6,69.8,94,30.01,7.0,North,4.6,-,0.30,Rain,Light Rain,10,2013-07-07 00:34:00
8:54 PM,71.6,69.8,94,30.01,7.0,Calm,Calm,-,0.30,,Overcast,0,2013-07-07 00:54:00
9:14 PM,71.6,69.8,94,30.01,4.0,Calm,Calm,-,0.01,Rain,Rain,0,2013-07-07 01:14:00
9:34 PM,71.6,69.8,94,30.01,10.0,Calm,Calm,-,0.01,Rain,Light Rain,0,2013-07-07 01:34:00
9:54 PM,71.6,69.8,94,30.01,10.0,Calm,Calm,-,0.01,Rain,Light Rain,0,2013-07-07 01:54:00
10:14 PM,71.6,69.8,94,30.02,10.0,Calm,Calm,-,N/A,,Overcast,0,2013-07-07 02:14:00
10:34 PM,71.6,69.8,94,30.02,10.0,Calm,Calm,-,N/A,,Overcast,0,2013-07-07 02:34:00
10:54 PM,71.6,69.8,94,30.03,7.0,Calm,Calm,-,N/A,,Overcast,0,2013-07-07 02:54:00
11:14 PM,71.6,69.8,94,30.03,7.0,Calm,Calm,-,N/A,,Mostly Cloudy,0,2013-07-07 03:14:00
11:35 PM,71.6,69.8,94,30.03,10.0,Calm,Calm,-,N/A,,Mostly Cloudy,0,2013-07-07 03:35:00
11:54 PM,71.6,69.8,94,30.04,7.0,Calm,Calm,-,N/A,,Overcast,0,2013-07-07 03:54:00